Weather History for KAXS - February, 2013

Change the Weather History Date:

Saturday, February 16, 2013

  Actual Average (KLTS) Record (KLTS)
Temperature  
Mean Temperature 42 °F -  
Max Temperature 57 °F 55 °F 45 °F (2015)
Min Temperature 28 °F 33 °F 23 °F (2015)
Degree Days  
Heating Degree Days 22    
Moisture  
Dew Point 30 °F    
Average Humidity 72    
Maximum Humidity 100    
Minimum Humidity 33    
Precipitation  
Precipitation 0.00 in - - ()
Sea Level Pressure  
Sea Level Pressure 30.27 in    
Wind  
Wind Speed 7 mph (South)    
Max Wind Speed 14 mph    
Max Gust Speed 18 mph    
Visibility 8 miles    
Events Fog    
Averages and records for this station are not official NWS values.
T = Trace of Precipitation, MM = Missing Value Source: NWS Daily Summary

Daily Weather History Graph

Daily Weather History Graph

Search for Another Location

Airport or City:

Trip Planner

Search our weather history database for the weather conditions in past years. The results will help you decide how hot, cold, wet, or windy it might be!

Date:

Astronomy

Feb. 16, 2013 Rise Set
Actual Time 7:21 AM CST 6:21 PM CST
Civil Twilight 6:55 AM CST 6:47 PM CST
Nautical Twilight 6:26 AM CST 7:17 PM CST
Astronomical Twilight 5:57 AM CST 7:46 PM CST
Moon 10:53 AM CST (2/16) 12:05 AM CST (2/16)
Length of Visible Light 11h 51m
Length of Day
11h 00m
Waxing Crescent, 39% of the Moon is Illuminated
Feb 16
Waxing Crescent
Feb 17
First Quarter
Feb 25
Full
Mar 4
Last Quarter
Mar 11
New

Hourly Weather History & Observations

Time (CST) Temp. Windchill Dew Point Humidity Pressure Visibility Wind Dir Wind Speed Gust Speed Precip Events Conditions
12:15 AM 35.6 °F 29.9 °F 30.2 °F 81% 30.40 in 10.0 mi South 6.9 mph - N/A   Scattered Clouds
12:35 AM 33.8 °F 27.0 °F 28.4 °F 81% 30.39 in 10.0 mi SW 8.1 mph - N/A   Clear
12:55 AM 32.0 °F 27.5 °F 28.4 °F 87% 30.39 in 10.0 mi SW 4.6 mph - N/A   Clear
1:15 AM 32.0 °F 26.4 °F 28.4 °F 87% 30.39 in 10.0 mi SW 5.8 mph - N/A   Clear
1:35 AM 32.0 °F - 26.6 °F 80% 30.39 in 10.0 mi Calm Calm - N/A   Clear
1:55 AM 32.0 °F 27.5 °F 26.6 °F 80% 30.40 in 10.0 mi North 4.6 mph - N/A   Clear
2:15 AM 30.2 °F 24.3 °F 26.6 °F 86% 30.40 in 10.0 mi North 5.8 mph - N/A   Clear
2:35 AM 32.0 °F 24.2 °F 26.6 °F 80% 30.40 in 10.0 mi NNE 9.2 mph - N/A   Clear
2:55 AM 32.0 °F 24.8 °F 26.6 °F 80% 30.39 in 10.0 mi NNE 8.1 mph - N/A   Clear
3:15 AM 32.0 °F - 26.6 °F 80% 30.39 in 10.0 mi Calm Calm - N/A   Clear
3:35 AM 32.0 °F - 28.4 °F 87% 30.39 in 10.0 mi Calm Calm - N/A   Clear
3:55 AM 32.0 °F 27.5 °F 28.4 °F 87% 30.38 in 10.0 mi North 4.6 mph - N/A   Clear
4:15 AM 30.2 °F 26.7 °F 26.6 °F 86% 30.40 in 10.0 mi West 3.5 mph - N/A   Clear
4:35 AM 28.4 °F 23.3 °F 26.6 °F 93% 30.40 in 10.0 mi NNW 4.6 mph - N/A   Clear
4:55 AM 30.2 °F 20.8 °F 28.4 °F 93% 30.39 in 10.0 mi North 11.5 mph - N/A   Scattered Clouds
5:15 AM 32.0 °F 23.6 °F 30.2 °F 93% 30.39 in 0.2 mi North 10.4 mph - N/A Fog Light Freezing Fog
5:35 AM 32.0 °F 23.0 °F 30.2 °F 93% 30.40 in 0.5 mi North 11.5 mph - N/A Fog Fog
5:55 AM 32.0 °F 22.5 °F 32.0 °F 100% 30.40 in 0.5 mi North 12.7 mph - N/A Fog Fog
6:15 AM 32.0 °F 24.2 °F 32.0 °F 100% 30.40 in 1.5 mi NNW 9.2 mph - N/A   Overcast
6:35 AM 32.0 °F 26.4 °F 32.0 °F 100% 30.40 in 2.5 mi NNW 5.8 mph - N/A   Overcast
7:15 AM 32.0 °F 25.6 °F 32.0 °F 100% 30.40 in 0.5 mi NW 6.9 mph - N/A Fog Fog
7:35 AM 32.0 °F 26.4 °F 30.2 °F 93% 30.40 in 0.2 mi NNW 5.8 mph - N/A Fog Light Freezing Fog
7:55 AM 32.0 °F 27.5 °F 30.2 °F 93% 30.41 in 0.2 mi NNW 4.6 mph - N/A Fog Light Freezing Fog
8:15 AM 32.0 °F 28.7 °F 30.2 °F 93% 30.41 in 0.2 mi North 3.5 mph - N/A Fog Light Freezing Fog
8:35 AM 32.0 °F 28.7 °F 30.2 °F 93% 30.41 in 0.2 mi NNW 3.5 mph - N/A Fog Light Freezing Fog
8:55 AM 32.0 °F 27.5 °F 32.0 °F 100% 30.41 in 0.2 mi NE 4.6 mph - N/A Fog Fog
9:15 AM 32.0 °F - 32.0 °F 100% 30.42 in 0.2 mi Calm Calm - N/A Fog Fog
9:35 AM 32.0 °F - 32.0 °F 100% 30.42 in 0.5 mi Calm Calm - N/A Fog Fog
11:15 AM 35.6 °F 32.8 °F 33.8 °F 93% 30.38 in 5.0 mi South 3.5 mph - N/A   Overcast
12:15 PM 39.2 °F 33.6 °F 33.8 °F 81% 30.34 in 10.0 mi South 8.1 mph - N/A   Scattered Clouds
12:35 PM 41.0 °F 36.4 °F 32.0 °F 70% 30.33 in 10.0 mi South 6.9 mph - N/A   Clear
12:55 PM 42.8 °F 37.5 °F 33.8 °F 70% 30.32 in 10.0 mi South 9.2 mph - N/A   Clear
1:15 PM 44.6 °F 40.2 °F 33.8 °F 66% 30.30 in 10.0 mi South 8.1 mph - N/A   Clear
1:35 PM 44.6 °F 39.7 °F 33.8 °F 66% 30.28 in 10.0 mi South 9.2 mph - N/A   Clear
1:55 PM 46.4 °F 42.4 °F 33.8 °F 62% 30.27 in 10.0 mi SSW 8.1 mph 18.4 mph N/A   Clear
2:15 PM 50.0 °F - 33.8 °F 54% 30.25 in 10.0 mi SSW 8.1 mph - N/A   Clear
2:35 PM 51.8 °F - 30.2 °F 44% 30.24 in 10.0 mi SW 12.7 mph 18.4 mph N/A   Clear
3:15 PM 55.4 °F - 28.4 °F 36% 30.21 in 10.0 mi SW 11.5 mph 18.4 mph N/A   Clear
3:35 PM 55.4 °F - 28.4 °F 36% 30.19 in 10.0 mi SW 11.5 mph - N/A   Clear
3:55 PM 55.4 °F - 28.4 °F 36% 30.18 in 10.0 mi SW 11.5 mph - N/A   Clear
4:15 PM 57.2 °F - 28.4 °F 33% 30.17 in 10.0 mi SW 12.7 mph 17.3 mph N/A   Clear
4:35 PM 57.2 °F - 28.4 °F 33% 30.16 in 10.0 mi SSW 11.5 mph - N/A   Clear
4:55 PM 57.2 °F - 28.4 °F 33% 30.15 in 10.0 mi SSW 13.8 mph 18.4 mph N/A   Clear
5:15 PM 57.2 °F - 28.4 °F 33% 30.14 in 10.0 mi SW 10.4 mph - N/A   Clear
5:35 PM 55.4 °F - 30.2 °F 38% 30.14 in 10.0 mi SSW 8.1 mph - N/A   Clear
5:55 PM 55.4 °F - 30.2 °F 38% 30.13 in 10.0 mi South 9.2 mph - N/A   Clear
6:15 PM 53.6 °F - 32.0 °F 44% 30.13 in 10.0 mi South 9.2 mph - N/A   Clear
6:35 PM 51.8 °F - 32.0 °F 47% 30.13 in 10.0 mi South 6.9 mph - N/A   Clear
6:55 PM 48.2 °F - 32.0 °F 54% 30.13 in 10.0 mi SSE 5.8 mph - N/A   Clear
7:15 PM 46.4 °F 42.9 °F 32.0 °F 57% 30.12 in 10.0 mi South 6.9 mph - N/A   Clear
7:35 PM 46.4 °F 42.9 °F 32.0 °F 57% 30.12 in 10.0 mi SE 6.9 mph - N/A   Clear
7:55 PM 44.6 °F 40.7 °F 32.0 °F 61% 30.13 in 10.0 mi SE 6.9 mph - N/A   Clear
8:15 PM 44.6 °F 41.4 °F 32.0 °F 61% 30.12 in 10.0 mi SE 5.8 mph - N/A   Clear
8:35 PM 42.8 °F 38.0 °F 32.0 °F 66% 30.11 in 10.0 mi SE 8.1 mph - N/A   Clear
8:55 PM 42.8 °F 38.6 °F 32.0 °F 66% 30.11 in 10.0 mi ESE 6.9 mph - N/A   Clear
9:15 PM 41.0 °F 36.4 °F 32.0 °F 70% 30.11 in 10.0 mi East 6.9 mph - N/A   Clear
9:55 PM 41.0 °F 35.2 °F 32.0 °F 70% 30.11 in 10.0 mi ESE 9.2 mph - N/A   Clear
10:15 PM 41.0 °F 35.8 °F 30.2 °F 65% 30.11 in 10.0 mi ESE 8.1 mph - N/A   Clear
10:35 PM 37.4 °F 32.1 °F 30.2 °F 75% 30.11 in 10.0 mi ESE 6.9 mph - N/A   Clear
10:55 PM 39.2 °F 34.2 °F 30.2 °F 70% 30.11 in 10.0 mi ESE 6.9 mph - N/A   Clear
11:15 PM 37.4 °F 32.1 °F 30.2 °F 75% 30.10 in 10.0 mi ESE 6.9 mph - N/A   Clear
11:35 PM 37.4 °F 31.4 °F 30.2 °F 75% 30.10 in 10.0 mi ESE 8.1 mph - N/A   Clear
11:55 PM 37.4 °F 31.4 °F 30.2 °F 75% 30.09 in 10.0 mi ESE 8.1 mph - N/A   Clear